Location: Aigremont
(47.7188°N, 3.8925°E)
Time: 22:54:30
(UTC+00:00)

Cosmos 2123 Rocket - Pass Details

Date: 18 February 2020
Orbit: 961 x 992 km, 82.9° (Epoch: 05 April)

Event Time Altitude Azimuth Distance (km) Brightness Sun altitude
Rises 05:47:30 0° 189° (S) 3,694 7.0 -10.5°
Reaches altitude 10° 05:50:01 10° 189° (S) 2,748 6.3 -10.1°
Maximum altitude 05:56:21 84° 278° (W) 1,001 4.0 -9.1°
Drops below altitude 10° 06:02:41 10° 8° (N) 2,752 6.4 -8.0°
Sets 06:05:13 0° 9° (N) 3,700 7.0 -7.6°
